[[{"header":{"parameterUnit":"m.s-1","parameterCategory":1,"la1":30.2991,"la2":30.254,"lo1":-89.0895,"lo2":-89.0444,"dy":0.0017,"dx":0.0017,"nx":28,"ny":28,"refTime":"2025-12-28T03:00:00:Z","depth":0,"parameterNumber":2,"parameterNumberName":"U-component_of_WINDS"},"data":[0,0,0,0,0,0,0,0,0,0,0,0,0,0,0,0,0,0,0,0,0,0,0,0,0,0,0,0,0,0,0,0,0,0,0,0,0,0,0,0,0,0,0,0,0,0,0,0,0,0,0,0,0,0,0,0,0,0,1.7592,1.7592,0,1.7599,1.7599,1.7599,1.7588,1.7587,1.7587,1.7587,1.7594,1.7594,1.7595,0,0,0,0,0,0,0,0,0,0,0,0,0,1.7569,1.7569,1.7592,1.7592,1.7592,1.7599,1.7599,1.7599,1.7588,1.7587,1.7587,1.7586,1.7594,1.7594,1.7595,0,0,0,0,0,0,0,0,0,0,0,0,0,1.7578,1.7569,1.7592,1.7587,1.7587,1.7599,1.7599,1.7599,1.7588,1.7587,1.7587,1.7586,1.7593,1.7594,1.7595,1.7612,0,0,1.7598,1.7598,0,0,0,0,0,0,0,0,1.7577,1.7578,1.7588,1.7588,1.7587,1.7592,1.7594,1.7604,1.7588,1.7588,1.7587,1.7586,1.7594,1.7594,1.7597,1.7612,1.7613,1.7598,1.7598,1.7598,1.7599,0,0,0,0,0,0,0,1.7577,1.7578,1.7595,1.7588,1.7588,1.7585,1.7586,1.7595,1.7594,1.7588,1.7587,1.7588,1.7593,1.7596,1.7597,1.7613,1.7598,1.7598,1.7599,1.7599,1.7643,1.7644,0,0,0,0,0,0,1.7576,1.7578,1.7594,1.7595,1.7581,1.7586,1.7587,1.7591,1.7594,1.7593,1.7588,1.7587,1.7595,1.7596,1.7597,1.7617,1.7598,1.7599,1.76,1.7642,1.7643,1.7644,0,0,0,0,0,0,1.7576,1.7578,1.7594,1.7586,1.7588,1.7587,1.7592,1.7591,1.7594,1.7594,1.7594,1.7592,1.7595,1.7596,1.7609,1.7618,1.76,1.76,1.7642,1.7643,1.7644,1.7658,0,0,0,0,0,0,1.7575,1.7578,1.7584,1.7586,1.7588,1.7605,1.7593,1.7592,1.7596,1.7595,1.7597,1.7597,1.7594,1.7607,1.7609,1.7618,1.7601,1.7641,1.7642,1.7643,1.7657,1.7659,1.7662,0,0,0,0,0,1.7575,1.7588,1.7584,1.7587,1.7596,1.7606,1.7607,1.7604,1.7597,1.7603,1.7603,1.7597,1.7617,1.7609,1.7611,1.762,1.764,1.7642,1.7643,1.7656,1.7659,1.7662,0,0,0,0,0,0,1.7586,1.7588,1.7584,1.7598,1.7602,1.7604,1.7611,1.7607,1.7613,1.7611,1.7607,1.7608,1.7621,1.7622,1.7613,1.7637,1.7627,1.7629,1.7636,1.7639,1.7641,1.764,1.7602,0,0,0,0,0,1.759,1.7598,1.7599,1.7611,1.7613,1.7612,1.7616,1.7614,1.7617,1.7619,1.762,1.7623,1.763,1.7635,1.7641,1.7657,1.7658,1.7665,1.7667,1.767,1.7671,1.768,1.7683,1.7649,1.7649,1.7649,0,0,1.7599,1.7601,1.7606,1.7614,1.7616,1.7624,1.7614,1.7622,1.7628,1.762,1.7632,1.7633,1.7637,1.7651,1.7657,1.7652,1.7681,1.7671,1.7673,1.7673,1.7682,1.7685,1.7688,1.765,1.765,1.765,0,0,1.7618,1.7621,1.7631,1.7634,1.7639,1.7638,1.7641,1.7644,1.7644,1.7656,1.765,1.7657,1.7669,1.7673,1.7676,1.7699,1.7693,1.7701,1.7713,1.7722,1.7725,1.7727,1.7735,1.7738,1.7703,1.7703,1.7703,0,1.7628,1.764,1.7637,1.7647,1.7651,1.7644,1.7655,1.7658,1.7665,1.7667,1.7662,1.7678,1.768,1.7695,1.7701,1.7704,1.7707,1.77,1.7725,1.7727,1.7729,1.7737,1.774,1.7704,1.7703,1.7703,1.7703,0,1.7652,1.766,1.7669,1.7675,1.768,1.769,1.769,1.7695,1.7693,1.7693,1.7706,1.7708,1.7715,1.7719,1.7717,1.7734,1.7731,1.7725,1.7715,1.7733,1.774,1.7743,1.7705,1.7705,1.7704,1.7704,0,0,1.7677,1.7683,1.7686,1.7689,1.7694,1.7701,1.7711,1.7719,1.7724,1.7729,1.7737,1.7749,1.7744,1.7747,1.7745,1.7753,1.7771,1.7746,1.7746,1.775,1.7791,1.7795,1.7798,1.7768,1.7769,1.7769,1.779,0,1.7696,1.7714,1.7713,1.7729,1.7738,1.7733,1.7742,1.7746,1.7747,1.7754,1.7755,1.7763,1.7756,1.7758,1.7766,1.7767,1.7779,1.7766,1.7776,1.7776,1.7774,1.7801,1.7805,1.7825,1.7793,1.7794,1.7794,0,1.772,1.7727,1.7744,1.7749,1.7753,1.7761,1.7768,1.7775,1.778,1.778,1.7785,1.7782,1.7793,1.7784,1.7799,1.779,1.7794,1.7796,1.7796,1.7796,1.7785,1.7802,1.7831,1.7834,1.7798,1.7798,1.7798,0,1.7736,1.7749,1.7762,1.7765,1.7771,1.7777,1.778,1.7784,1.7789,1.7796,1.7799,1.7807,1.7811,1.7817,1.7816,1.7809,1.7832,1.7822,1.7832,1.7832,1.7836,1.7835,1.7866,1.784,1.784,1.784,1.784,0,1.7757,1.7768,1.7769,1.7777,1.7789,1.7788,1.7801,1.7803,1.7807,1.7816,1.7812,1.782,1.7819,1.7827,1.7827,1.7839,1.7841,1.7842,1.7841,1.7842,1.7841,1.7843,1.7842,1.7841,1.7841,1.784,1.784,0,1.7776,1.7777,1.7791,1.7796,1.7798,1.7806,1.7811,1.7818,1.782,1.783,1.7833,1.7835,1.7844,1.7844,1.7855,1.7855,1.787,1.7869,1.7868,1.7868,1.7877,1.7876,1.791,1.7914,1.7886,1.7886,1.7887,0,1.7789,1.7797,1.7804,1.7809,1.7812,1.7821,1.7826,1.7826,1.7832,1.784,1.7846,1.7855,1.7862,1.7878,1.788,1.7888,1.7887,1.7898,1.7888,1.7888,1.7886,1.7885,1.7886,1.7899,1.79,1.79,1.79,0,1.7811,1.7812,1.7819,1.7828,1.7835,1.7841,1.7847,1.7852,1.7853,1.7859,1.7869,1.7875,1.7886,1.7895,1.7904,1.7907,1.7904,1.7904,1.7906,1.7906,1.7905,1.7905,1.7873,1.7902,1.7902,1.7902,1.7902,1.7902,1.7827,1.7834,1.784,1.785,1.7855,1.7861,1.7868,1.7871,1.7879,1.7888,1.7888,1.7899,1.7905,1.7916,1.792,1.7929,1.7925,1.7929,1.793,1.793,1.7931,1.7905,1.793,1.793,1.793,1.793,1.793,0,1.7849,1.7853,1.7861,1.787,1.7878,1.7875,1.7882,1.7888,1.7898,1.7904,1.7912,1.7923,1.7933,1.7936,1.7946,1.7952,1.7951,1.7954,1.7953,1.7954,1.7934,1.7931,1.7955,1.7955,1.7955,1.7955,1.7955,1.7955,1.7861,1.7873,1.7875,1.789,1.7894,1.7905,1.7909,1.7915,1.792,1.7933,1.7941,1.7944,1.795,1.7959,1.7968,1.7969,1.7972,1.7976,1.7976,1.7958,1.7955,1.7953,1.7949,1.7977,1.7977,1.7995,1.7995,1.7995]},{"header":{"parameterUnit":"m.s-1","parameterCategory":1,"la1":30.2991,"la2":30.254,"lo1":-89.0895,"lo2":-89.0444,"dy":0.0017,"dx":0.0017,"nx":28,"ny":28,"refTime":"2025-12-28T03:00:00:Z","depth":0,"parameterNumber":3,"parameterNumberName":"V-component_of_WINDS"},"data":[0,0,0,0,0,0,0,0,0,0,0,0,0,0,0,0,0,0,0,0,0,0,0,0,0,0,0,0,0,0,0,0,0,0,0,0,0,0,0,0,0,0,0,0,0,0,0,0,0,0,0,0,0,0,0,0,0,0,-7.6865,-7.6867,0,-7.7053,-7.7055,-7.7057,-7.6987,-7.6983,-7.6979,-7.6975,-7.7161,-7.717,-7.7179,0,0,0,0,0,0,0,0,0,0,0,0,0,-7.6441,-7.6449,-7.6865,-7.6868,-7.687,-7.7053,-7.7055,-7.7058,-7.6988,-7.6983,-7.6977,-7.6973,-7.7158,-7.7169,-7.718,0,0,0,0,0,0,0,0,0,0,0,0,0,-7.6627,-7.6452,-7.6865,-7.6857,-7.6858,-7.7052,-7.7055,-7.7059,-7.6989,-7.6983,-7.6976,-7.697,-7.7155,-7.7168,-7.7181,-7.7392,0,0,-7.7222,-7.7228,0,0,0,0,0,0,0,0,-7.6616,-7.6642,-7.6856,-7.6858,-7.686,-7.699,-7.6974,-7.717,-7.6991,-7.6939,-7.6974,-7.6967,-7.7109,-7.7126,-7.7175,-7.7401,-7.7409,-7.7223,-7.7231,-7.7237,-7.7241,0,0,0,0,0,0,0,-7.6603,-7.6634,-7.6939,-7.6859,-7.6862,-7.6843,-7.6862,-7.7011,-7.7058,-7.6943,-7.6939,-7.6962,-7.7109,-7.7162,-7.7179,-7.7411,-7.7223,-7.7235,-7.7243,-7.7248,-7.7819,-7.7826,0,0,0,0,0,0,-7.6591,-7.6624,-7.6933,-7.6945,-7.672,-7.6856,-7.6877,-7.6955,-7.7056,-7.7065,-7.6967,-7.6958,-7.7143,-7.7163,-7.7185,-7.7439,-7.7237,-7.725,-7.7257,-7.7812,-7.782,-7.7828,0,0,0,0,0,0,-7.6582,-7.6619,-7.6926,-7.6783,-7.6821,-7.687,-7.6957,-7.6962,-7.7015,-7.7074,-7.7081,-7.7014,-7.7138,-7.7166,-7.7341,-7.7444,-7.7256,-7.7268,-7.7803,-7.7814,-7.7824,-7.7948,0,0,0,0,0,0,-7.657,-7.6616,-7.6698,-7.6786,-7.6829,-7.7081,-7.6964,-7.697,-7.7039,-7.7029,-7.712,-7.7128,-7.7135,-7.7322,-7.7355,-7.746,-7.7278,-7.7794,-7.7808,-7.7821,-7.7935,-7.7962,-7.7985,0,0,0,0,0,-7.6555,-7.6724,-7.6703,-7.674,-7.6933,-7.7087,-7.7112,-7.7118,-7.7048,-7.713,-7.7167,-7.7126,-7.7428,-7.734,-7.7377,-7.7487,-7.7788,-7.7804,-7.782,-7.7924,-7.7957,-7.7984,0,0,0,0,0,0,-7.6646,-7.6736,-7.6713,-7.6916,-7.6995,-7.7075,-7.7179,-7.7152,-7.7251,-7.7237,-7.7239,-7.726,-7.744,-7.7481,-7.7382,-7.7696,-7.7597,-7.7621,-7.7664,-7.7695,-7.7719,-7.7706,-7.729,0,0,0,0,0,-7.669,-7.681,-7.6881,-7.7053,-7.7094,-7.713,-7.7197,-7.7196,-7.7276,-7.7309,-7.7359,-7.7438,-7.7551,-7.7625,-7.7731,-7.794,-7.7958,-7.8034,-7.8058,-7.8078,-7.8099,-7.8212,-7.8247,-7.7881,-7.788,-7.788,0,0,-7.6782,-7.6845,-7.6921,-7.7073,-7.7134,-7.7257,-7.7158,-7.7292,-7.7383,-7.7329,-7.7498,-7.7538,-7.7625,-7.7818,-7.7906,-7.7858,-7.8204,-7.8099,-7.8114,-7.8125,-7.8232,-7.8267,-7.8298,-7.7891,-7.7889,-7.7888,0,0,-7.7011,-7.7072,-7.7223,-7.7286,-7.738,-7.7403,-7.7439,-7.7524,-7.7549,-7.7719,-7.7681,-7.7787,-7.7981,-7.8045,-7.8103,-7.8357,-7.8322,-7.8392,-7.8521,-7.8631,-7.866,-7.8686,-7.8777,-7.8809,-7.8412,-7.8413,-7.8413,0,-7.7113,-7.7298,-7.7303,-7.7441,-7.7508,-7.7466,-7.7618,-7.7678,-7.7802,-7.7849,-7.7793,-7.8036,-7.8092,-7.83,-7.8362,-7.841,-7.845,-7.8382,-7.8656,-7.8682,-7.8706,-7.8792,-7.8826,-7.842,-7.8419,-7.8419,-7.8418,0,-7.7419,-7.7547,-7.7657,-7.778,-7.786,-7.8004,-7.8028,-7.8108,-7.8099,-7.8127,-7.83,-7.8366,-7.8485,-7.8534,-7.8526,-7.8741,-7.8708,-7.8655,-7.8555,-7.8748,-7.883,-7.8863,-7.8432,-7.8429,-7.8427,-7.8425,0,0,-7.7712,-7.7835,-7.7876,-7.7931,-7.8031,-7.813,-7.8271,-7.839,-7.8458,-7.8544,-7.8662,-7.8827,-7.8779,-7.8845,-7.8843,-7.8939,-7.9137,-7.8874,-7.8876,-7.8921,-7.9377,-7.9417,-7.9456,-7.9113,-7.912,-7.9125,-7.937,0,-7.7951,-7.8201,-7.8209,-7.8437,-7.8555,-7.8517,-7.864,-7.8714,-7.8743,-7.8847,-7.8878,-7.8996,-7.8922,-7.8962,-7.9056,-7.9093,-7.9228,-7.9075,-7.9222,-7.9227,-7.9203,-7.9498,-7.9541,-7.977,-7.9402,-7.9407,-7.9411,0,-7.8263,-7.8361,-7.8602,-7.8685,-7.8735,-7.8846,-7.8955,-7.9055,-7.9137,-7.9151,-7.9226,-7.9209,-7.9352,-7.9247,-7.9443,-7.9338,-7.9398,-7.9425,-7.9434,-7.9449,-7.9332,-7.9521,-7.9843,-7.9877,-7.9461,-7.9457,-7.9453,0,-7.8453,-7.8645,-7.8814,-7.8862,-7.8964,-7.9042,-7.9088,-7.9164,-7.9235,-7.9329,-7.9375,-7.9484,-7.9544,-7.9628,-7.9641,-7.9564,-7.9838,-7.9734,-7.9853,-7.9853,-7.9913,-7.9909,-8.0249,-7.9951,-7.995,-7.995,-7.9949,0,-7.8719,-7.8868,-7.8901,-7.9005,-7.917,-7.9177,-7.9339,-7.9378,-7.9447,-7.9556,-7.9528,-7.9631,-7.9642,-7.9748,-7.9758,-7.9919,-7.9945,-7.996,-7.9961,-7.9964,-7.9962,-8.0004,-7.9988,-7.9959,-7.9957,-7.9955,-7.9954,0,-7.8961,-7.8989,-7.9171,-7.9252,-7.9276,-7.9394,-7.9463,-7.9562,-7.9588,-7.9727,-7.976,-7.9801,-7.9924,-7.9945,-8.0089,-8.0096,-8.0288,-8.0272,-8.0261,-8.026,-8.0378,-8.0367,-8.0757,-8.0808,-8.0476,-8.0479,-8.0482,0,-7.9129,-7.9243,-7.9337,-7.941,-7.946,-7.9577,-7.9649,-7.9659,-7.9735,-7.9838,-7.9924,-8.0044,-8.0141,-8.0339,-8.0381,-8.049,-8.0478,-8.0607,-8.0494,-8.0492,-8.048,-8.0474,-8.0485,-8.0629,-8.0632,-8.0635,-8.0638,0,-7.9425,-7.9434,-7.9541,-7.9653,-7.9741,-7.9829,-7.9912,-7.9972,-7.9993,-8.008,-8.0206,-8.0282,-8.043,-8.0549,-8.0659,-8.0703,-8.0674,-8.0673,-8.0706,-8.071,-8.0699,-8.0707,-8.0321,-8.0664,-8.0661,-8.0659,-8.0658,-8.0657,-7.9636,-7.9736,-7.9818,-7.9937,-8.0001,-8.008,-8.0177,-8.0216,-8.0322,-8.0445,-8.0444,-8.0582,-8.066,-8.0805,-8.0856,-8.0963,-8.0922,-8.097,-8.0982,-8.0994,-8.1006,-8.0682,-8.0983,-8.0982,-8.0982,-8.0981,-8.098,0,-7.9931,-7.9982,-8.0092,-8.0211,-8.0305,-8.0271,-8.0361,-8.0441,-8.0564,-8.0641,-8.0737,-8.0882,-8.0998,-8.1049,-8.1162,-8.1238,-8.1228,-8.1267,-8.1262,-8.1273,-8.1037,-8.0997,-8.1274,-8.1274,-8.1274,-8.1274,-8.1274,-8.1274,-8.0096,-8.0263,-8.0281,-8.0479,-8.0528,-8.0665,-8.072,-8.0791,-8.0852,-8.1016,-8.1113,-8.1146,-8.1212,-8.133,-8.1434,-8.1445,-8.1489,-8.1535,-8.1541,-8.1319,-8.1289,-8.1261,-8.1224,-8.1544,-8.1545,-8.1768,-8.177,-8.1772]}]]